| time (UTC) | temp C | wind direction | speed KPH | gust KPH | rain 1hr cm | rain 24hr cm | rain mn cm | humidity % | barometer mb |
| 20260506184438 | 15 | 178 | 0.0 | 0.0 | 0.18 | 0.18 | 0.18 | 99 | 1013.9 |
| 20260506183437 | 15 | 200 | 0.0 | 0.0 | 0.00 | 0.15 | 0.15 | 99 | 1013.9 |
| 20260506182432 | 15 | 173 | 1.6 | 1.6 | 0.13 | 0.15 | 0.15 | 99 | 1014.2 |
| 20260506181427 | 16 | 196 | 1.6 | 1.6 | 0.00 | 0.13 | 0.13 | 99 | 1014.1 |
| 20260506180425 | 16 | 139 | 3.2 | 3.2 | 0.00 | 0.13 | 0.13 | 99 | 1013.8 |
| 20260506175425 | 16 | 43 | 3.2 | 4.8 | 0.13 | 0.13 | 0.13 | 99 | 1014.0 |
| 20260506174420 | 16 | 226 | 3.2 | 3.2 | 0.13 | 0.10 | 0.10 | 99 | 1013.9 |
| 20260506173419 | 17 | 188 | 0.0 | 0.0 | 0.30 | 0.10 | 0.10 | 99 | 1014.4 |
| 20260506172419 | 17 | 165 | 0.0 | 0.0 | 0.30 | 0.08 | 0.08 | 96 | 1014.5 |
| 20260506171419 | 18 | 182 | 1.6 | 1.6 | 0.13 | 0.03 | 0.03 | 92 | 1014.8 |
| 20260506170419 | 19 | 258 | 3.2 | 4.8 | 0.00 | 0.00 | 0.00 | 87 | 1014.6 |
| 20260506165416 | 19 | 173 | 0.0 | 0.0 | 0.00 | 0.00 | 0.00 | 87 | 1014.8 |
| 20260506164414 | 20 | 174 | 0.0 | 1.6 | 0.00 | 0.00 | 0.00 | 85 | 1014.7 |
| 20260506163413 | 20 | 160 | 1.6 | 3.2 | 0.00 | 0.00 | 0.00 | 82 | 1014.8 |
| 20260506162412 | 20 | 172 | 3.2 | 3.2 | 0.00 | 0.00 | 0.00 | 81 | 1014.5 |
| 20260506161407 | 20 | 176 | 0.0 | 0.0 | 0.00 | 0.00 | 0.00 | 82 | 1014.9 |
| 20260506160407 | 20 | 172 | 0.0 | 0.0 | 0.00 | 0.00 | 0.00 | 81 | 1015.2 |
| 20260506155403 | 19 | 188 | 1.6 | 1.6 | 0.00 | 0.00 | 0.00 | 82 | 1015.1 |
| 20260506153525 | 18 | 130 | 1.6 | 1.6 | 0.00 | 0.00 | 0.00 | 84 | 1015.6 |
| 20260506152524 | 18 | 185 | 0.0 | 0.0 | 0.00 | 0.00 | 0.00 | 84 | 1015.8 |
| 20260506151520 | 18 | 66 | 3.2 | 3.2 | 0.00 | 0.00 | 0.00 | 84 | 1016.0 |
| 20260506150519 | 18 | 179 | 1.6 | 1.6 | 0.00 | 0.00 | 0.00 | 85 | 1016.1 |
| 20260506145519 | 18 | 182 | 1.6 | 1.6 | 0.00 | 0.00 | 0.00 | 85 | 1015.9 |
| 20260506144519 | 18 | 170 | 1.6 | 3.2 | 0.00 | 0.00 | 0.00 | 85 | 1016.2 |
| 20260506143514 | 17 | 146 | 1.6 | 3.2 | 0.00 | 0.00 | 0.00 | 85 | 1016.0 |
| 20260506142509 | 17 | 175 | 3.2 | 3.2 | 0.00 | 0.00 | 0.00 | 86 | 1016.3 |
| 20260506141505 | 18 | 242 | 4.8 | 4.8 | 0.00 | 0.00 | 0.00 | 85 | 1016.1 |
| 20260506140500 | 18 | 191 | 0.0 | 1.6 | 0.00 | 0.00 | 0.00 | 85 | 1016.1 |
| 20260506135500 | 18 | 331 | 3.2 | 3.2 | 0.00 | 0.00 | 0.00 | 86 | 1015.8 |
| 20260506134458 | 17 | 223 | 3.2 | 3.2 | 0.00 | 0.00 | 0.00 | 86 | 1015.7 |
| 20260506133457 | 17 | 185 | 3.2 | 8.0 | 0.00 | 0.00 | 0.00 | 88 | 1016.0 |
| 20260506132456 | 17 | 226 | 3.2 | 3.2 | 0.00 | 0.00 | 0.00 | 87 | 1015.8 |
| 20260506131457 | 17 | 266 | 0.0 | 1.6 | 0.00 | 0.00 | 0.00 | 88 | 1015.9 |
| 20260506130456 | 17 | 285 | 1.6 | 1.6 | 0.00 | 0.00 | 0.00 | 88 | 1016.3 |
| 20260506125452 | 16 | 201 | 0.0 | 1.6 | 0.00 | 0.00 | 0.00 | 89 | 1016.2 |
| 20260506124447 | 16 | 202 | 1.6 | 3.2 | 0.00 | 0.00 | 0.00 | 89 | 1016.3 |
| 20260506123442 | 16 | 194 | 0.0 | 0.0 | 0.00 | 0.00 | 0.00 | 89 | 1016.5 |
| 20260506122442 | 16 | 207 | 1.6 | 1.6 | 0.00 | 0.00 | 0.00 | 91 | 1016.4 |
| 20260506121437 | 15 | 182 | 0.0 | 0.0 | 0.00 | 0.00 | 0.00 | 92 | 1016.6 |
| 20260506120437 | 15 | 193 | 1.6 | 1.6 | 0.00 | 0.00 | 0.00 | 92 | 1016.6 |
| 20260506115432 | 15 | 233 | 1.6 | 1.6 | 0.00 | 0.00 | 0.00 | 93 | 1016.6 |
| 20260506114428 | 15 | 176 | 0.0 | 0.0 | 0.00 | 0.00 | 0.00 | 93 | 1016.7 |
| 20260506113424 | 15 | 173 | 0.0 | 0.0 | 0.00 | 0.00 | 0.00 | 93 | 1016.7 |
| 20260506112424 | 15 | 188 | 0.0 | 0.0 | 0.00 | 0.00 | 0.00 | 93 | 1016.6 |
| 20260506111419 | 15 | 178 | 0.0 | 0.0 | 0.00 | 0.00 | 0.00 | 93 | 1016.3 |
| 20260506110414 | 15 | 80 | 1.6 | 3.2 | 0.00 | 0.00 | 0.00 | 93 | 1016.6 |
| 20260506105412 | 14 | 206 | 0.0 | 0.0 | 0.00 | 0.00 | 0.00 | 95 | 1016.8 |
| 20260506104407 | 14 | 172 | 0.0 | 0.0 | 0.00 | 0.00 | 0.00 | 95 | 1016.7 |
| 20260506103402 | 14 | 170 | 0.0 | 1.6 | 0.00 | 0.00 | 0.00 | 95 | 1016.9 |
| 20260506102357 | 13 | 140 | 0.0 | 0.0 | 0.00 | 0.00 | 0.00 | 95 | 1016.8 |
| 20260506101356 | 13 | 168 | 0.0 | 0.0 | 0.00 | 0.00 | 0.00 | 96 | 1016.2 |
| 20260506100352 | 13 | 190 | 0.0 | 0.0 | 0.00 | 0.00 | 0.00 | 96 | 1016.6 |
| 20260506095347 | 13 | 179 | 0.0 | 0.0 | 0.00 | 0.00 | 0.00 | 95 | 1016.4 |
| 20260506094343 | 13 | 139 | 1.6 | 1.6 | 0.00 | 0.00 | 0.00 | 95 | 1016.3 |
| 20260506093343 | 13 | 173 | 0.0 | 0.0 | 0.00 | 0.00 | 0.00 | 94 | 1016.5 |
| 20260506092339 | 13 | 188 | 0.0 | 1.6 | 0.00 | 0.00 | 0.00 | 94 | 1016.3 |
| 20260506091339 | 13 | 151 | 0.0 | 3.2 | 0.00 | 0.00 | 0.00 | 94 | 1016.3 |
| 20260506090339 | 14 | 188 | 0.0 | 0.0 | 0.00 | 0.00 | 0.00 | 93 | 1016.3 |
| 20260506085338 | 14 | 182 | 0.0 | 0.0 | 0.00 | 0.00 | 0.00 | 92 | 1016.2 |
| 20260506084337 | 15 | 250 | 1.6 | 3.2 | 0.00 | 0.00 | 0.00 | 92 | 1016.5 |
| 20260506083337 | 15 | 142 | 0.0 | 0.0 | 0.00 | 0.00 | 0.00 | 91 | 1016.5 |
| 20260506082337 | 15 | 178 | 0.0 | 1.6 | 0.00 | 0.00 | 0.00 | 91 | 1016.6 |
| 20260506081337 | 15 | 136 | 0.0 | 1.6 | 0.00 | 0.00 | 0.00 | 91 | 1016.2 |
| 20260506080337 | 15 | 219 | 1.6 | 1.6 | 0.00 | 0.00 | 0.00 | 90 | 1016.5 |
| 20260506073327 | 15 | 165 | 0.0 | 0.0 | 0.00 | 0.00 | 0.00 | 88 | 1016.3 |
| 20260506072327 | 15 | 177 | 0.0 | 0.0 | 0.00 | 0.00 | 0.00 | 88 | 1016.5 |
| 20260506071323 | 15 | 163 | 0.0 | 0.0 | 0.00 | 0.00 | 0.00 | 87 | 1016.3 |
| 20260506070322 | 15 | 198 | 1.6 | 1.6 | 0.00 | 0.00 | 0.00 | 87 | 1016.4 |
| 20260506062306 | 15 | 188 | 0.0 | 0.0 | 0.00 | 0.00 | 0.00 | 83 | 1016.1 |
| 20260506061304 | 15 | 179 | 1.6 | 1.6 | 0.00 | 0.00 | 0.00 | 83 | 1016.3 |
| 20260506060300 | 16 | 181 | 1.6 | 1.6 | 0.00 | 0.00 | 0.00 | 82 | 1016.3 |
| 20260506051249 | 16 | 248 | 1.6 | 3.2 | 0.00 | 0.00 | 0.00 | 78 | 1016.3 |
| 20260506050244 | 16 | 183 | 1.6 | 1.6 | 0.00 | 0.00 | 0.00 | 78 | 1016.3 |
| 20260506044243 | 16 | 194 | 0.0 | 1.6 | 0.00 | 0.00 | 0.00 | 77 | 1016.5 |
| 20260506043238 | 16 | 193 | 1.6 | 1.6 | 0.00 | 0.00 | 0.00 | 77 | 1016.6 |
| 20260506042235 | 16 | 179 | 0.0 | 0.0 | 0.00 | 0.00 | 0.00 | 78 | 1016.6 |
| 20260506041230 | 17 | 183 | 0.0 | 0.0 | 0.00 | 0.00 | 0.00 | 76 | 1016.6 |
| 20260506040230 | 17 | 170 | 0.0 | 0.0 | 0.00 | 0.00 | 0.00 | 76 | 1016.5 |
| 20260506035229 | 17 | 151 | 0.0 | 0.0 | 0.00 | 0.00 | 0.00 | 75 | 1016.4 |
| 20260506034229 | 17 | 208 | 1.6 | 1.6 | 0.00 | 0.00 | 0.00 | 76 | 1016.5 |
| 20260506033230 | 17 | 176 | 0.0 | 0.0 | 0.00 | 0.00 | 0.00 | 75 | 1016.7 |
| 20260506032229 | 17 | 179 | 0.0 | 0.0 | 0.00 | 0.00 | 0.00 | 74 | 1016.5 |
| 20260506031229 | 17 | 200 | 1.6 | 3.2 | 0.00 | 0.00 | 0.00 | 73 | 1016.4 |
| 20260506030224 | 17 | 168 | 1.6 | 1.6 | 0.00 | 0.00 | 0.00 | 73 | 1016.4 |
| 20260506025223 | 17 | 166 | 0.0 | 0.0 | 0.00 | 0.00 | 0.00 | 73 | 1016.5 |
| 20260506024223 | 18 | 193 | 1.6 | 1.6 | 0.00 | 0.00 | 0.00 | 71 | 1016.5 |
| 20260506023222 | 18 | 275 | 4.8 | 11.3 | 0.00 | 0.00 | 0.00 | 71 | 1016.6 |
| 20260506022217 | 18 | 194 | 0.0 | 0.0 | 0.00 | 0.00 | 0.00 | 71 | 1016.2 |
| 20260506021217 | 18 | 184 | 0.0 | 0.0 | 0.00 | 0.00 | 0.00 | 71 | 1016.3 |
| 20260506020212 | 18 | 125 | 0.0 | 0.0 | 0.00 | 0.00 | 0.00 | 70 | 1016.1 |
| 20260506015213 | 18 | 187 | 0.0 | 0.0 | 0.00 | 0.00 | 0.00 | 70 | 1016.1 |
| 20260506014211 | 18 | 202 | 3.2 | 3.2 | 0.00 | 0.00 | 0.00 | 69 | 1016.3 |
| 20260506013206 | 19 | 179 | 0.0 | 0.0 | 0.00 | 0.00 | 0.00 | 69 | 1015.9 |
| 20260506012204 | 19 | 317 | 1.6 | 1.6 | 0.00 | 0.00 | 0.00 | 68 | 1016.0 |
| 20260506011203 | 19 | 116 | 0.0 | 0.0 | 0.00 | 0.00 | 0.00 | 68 | 1015.9 |
| 20260506010159 | 20 | 125 | 1.6 | 1.6 | 0.00 | 0.00 | 0.00 | 67 | 1015.8 |
| 20260506005159 | 20 | 151 | 0.0 | 1.6 | 0.00 | 0.00 | 0.00 | 67 | 1015.6 |
| 20260506004158 | 20 | 125 | 0.0 | 1.6 | 0.00 | 0.00 | 0.00 | 66 | 1015.6 |
| 20260506003156 | 20 | 226 | 0.0 | 1.6 | 0.00 | 0.00 | 0.00 | 64 | 1015.3 |
| 20260506002154 | 21 | 239 | 3.2 | 4.8 | 0.00 | 0.00 | 0.00 | 63 | 1015.1 |
| 20260506001153 | 21 | 182 | 0.0 | 0.0 | 0.00 | 0.00 | 0.00 | 63 | 1015.0 |
| 20260506000148 | 21 | 57 | 8.0 | 11.3 | 0.00 | 0.00 | 0.00 | 62 | 1014.8 |
| 20260505235148 | 21 | 222 | 1.6 | 3.2 | 0.00 | 0.00 | 0.00 | 61 | 1014.5 |
| 20260505234148 | 21 | 131 | 1.6 | 3.2 | 0.00 | 0.00 | 0.00 | 61 | 1014.3 |
| 20260505233148 | 22 | 237 | 3.2 | 4.8 | 0.00 | 0.00 | 0.00 | 61 | 1014.1 |
| 20260505232143 | 22 | 189 | 1.6 | 1.6 | 0.00 | 0.00 | 0.00 | 59 | 1013.8 |
| 20260505231138 | 22 | 137 | 4.8 | 4.8 | 0.00 | 0.00 | 0.00 | 58 | 1013.7 |
| 20260505230138 | 23 | 37 | 3.2 | 8.0 | 0.00 | 0.00 | 0.00 | 57 | 1013.5 |
| 20260505225137 | 23 | 197 | 4.8 | 4.8 | 0.00 | 0.00 | 0.00 | 56 | 1013.5 |
| 20260505224137 | 23 | 252 | 4.8 | 4.8 | 0.00 | 0.00 | 0.00 | 55 | 1013.4 |
| 20260505223136 | 24 | 197 | 0.0 | 0.0 | 0.00 | 0.00 | 0.00 | 54 | 1013.2 |
| 20260505222134 | 24 | 180 | 3.2 | 3.2 | 0.00 | 0.00 | 0.00 | 53 | 1013.2 |
| 20260505221134 | 25 | 182 | 1.6 | 1.6 | 0.00 | 0.00 | 0.00 | 53 | 1012.9 |
| 20260505220129 | 25 | 46 | 6.4 | 11.3 | 0.00 | 0.00 | 0.00 | 52 | 1012.9 |
| 20260505215124 | 25 | 73 | 1.6 | 3.2 | 0.00 | 0.00 | 0.00 | 52 | 1012.8 |
| 20260505214119 | 25 | 121 | 3.2 | 4.8 | 0.00 | 0.00 | 0.00 | 52 | 1012.6 |
| 20260505213118 | 25 | 357 | 11.3 | 14.5 | 0.00 | 0.00 | 0.00 | 51 | 1012.3 |
| 20260505212118 | 26 | 29 | 17.7 | 25.7 | 0.00 | 0.00 | 0.00 | 51 | 1012.1 |
| 20260505211118 | 26 | 175 | 3.2 | 3.2 | 0.00 | 0.00 | 0.00 | 51 | 1012.5 |
| 20260505210117 | 26 | 260 | 12.9 | 22.5 | 0.00 | 0.00 | 0.00 | 51 | 1012.3 |
| 20260505205113 | 26 | 97 | 1.6 | 1.6 | 0.00 | 0.00 | 0.00 | 51 | 1012.2 |
| 20260505204107 | 26 | 62 | 1.6 | 3.2 | 0.00 | 0.00 | 0.00 | 49 | 1012.2 |
| 20260505203106 | 27 | 120 | 3.2 | 3.2 | 0.00 | 0.00 | 0.00 | 48 | 1012.2 |
| 20260505202104 | 27 | 134 | 4.8 | 8.0 | 0.00 | 0.00 | 0.00 | 48 | 1012.2 |
| 20260505201059 | 27 | 279 | 4.8 | 4.8 | 0.00 | 0.00 | 0.00 | 47 | 1012.3 |
| 20260505200059 | 27 | 162 | 1.6 | 1.6 | 0.00 | 0.00 | 0.00 | 48 | 1012.3 |
| 20260505195059 | 27 | 173 | 6.4 | 9.7 | 0.00 | 0.00 | 0.00 | 49 | 1012.3 |
| 20260505194057 | 27 | 107 | 1.6 | 4.8 | 0.00 | 0.00 | 0.00 | 48 | 1012.5 |
| 20260505193058 | 28 | 156 | 4.8 | 8.0 | 0.00 | 0.00 | 0.00 | 46 | 1012.1 |
| 20260505192053 | 28 | 99 | 1.6 | 1.6 | 0.00 | 0.00 | 0.00 | 46 | 1012.5 |
| 20260505191049 | 29 | 78 | 4.8 | 4.8 | 0.00 | 0.00 | 0.00 | 41 | 1012.3 |
| 20260505190046 | 29 | 300 | 6.4 | 9.7 | 0.00 | 0.00 | 0.00 | 39 | 1012.6 |